Weather History for Rapid City, SD

Change the Weather History Date:

Friday, November 4, 2011

  Actual Average Record
Temperature  
Mean Temperature 48 °F 40 °F  
Max Temperature 69 °F 53 °F 79 °F (1999)
Min Temperature 27 °F 27 °F 6 °F (2003)
Degree Days  
Heating Degree Days 17 25  
Month to date heating degree days 107 97  
Since 1 July heating degree days 718 859  
Cooling Degree Days 0 0  
Month to date cooling degree days 0 0  
Year to date cooling degree days 699 636  
Moisture  
Dew Point 26 °F    
Average Humidity 51    
Maximum Humidity 85    
Minimum Humidity 17    
Precipitation  
Precipitation 0.00 in 0.02 in 0.40 in (1959)
Month to date precipitation 0.03 0.09  
Year to date precipitation 18.45 15.43  
Snow  
Snow 0.00 in 0.10 in - ()
Month to date snowfall T 0.7  
Since 1 July snowfall T 2.5  
Since 1 September snowfall T 2.5  
Snow Depth 0.00 in    
Sea Level Pressure  
Sea Level Pressure 29.71 in    
Wind  
Wind Speed 12 mph (SSE)    
Max Wind Speed 22 mph    
Max Gust Speed 29 mph    
Visibility 10 miles    
Events      
T = Trace of Precipitation, MM = Missing Value Source: NWS Daily Summary

Daily Weather History Graph

Daily Weather History Graph

Search for Another Location

Airport:

Trip Planner

Search our weather history database for the weather conditions in past years. The results will help you decide how hot, cold, wet, or windy it might be!

Date:

Astronomy

Nov. 04, 2011 Rise Set
Actual Time 7:32 AM MDT 5:38 PM MDT
Civil Twilight 7:02 AM MDT 6:08 PM MDT
Nautical Twilight 6:27 AM MDT 6:43 PM MDT
Astronomical Twilight 5:54 AM MDT 7:16 PM MDT
Moon 2:41 PM MDT (11/4) 1:35 AM MDT (11/4)
Length of Visible Light 11h 06m
Length of Day
10h 06m
Waxing Gibbous, 70% of the Moon is Illuminated
Nov 4
Waxing Gibbous
Nov 10
Full
Nov 18
Last Quarter
Nov 24
New
Dec 2
First Quarter

Hourly Weather History & Observations

Time (MDT) Temp. Windchill Dew Point Humidity Pressure Visibility Wind Dir Wind Speed Gust Speed Precip Events Conditions
12:52 AM 37.0 °F 29.3 °F 21.0 °F 52% 29.81 in 10.0 mi SSE 11.5 mph - N/A   Clear
1:52 AM 36.0 °F 28.0 °F 21.9 °F 57% 29.79 in 10.0 mi SSE 11.5 mph - N/A   Clear
2:52 AM 33.1 °F 25.5 °F 23.0 °F 66% 29.81 in 10.0 mi SSE 9.2 mph - N/A   Clear
3:52 AM 32.0 °F 22.5 °F 24.1 °F 73% 29.80 in 10.0 mi SSE 12.7 mph - N/A   Clear
4:52 AM 33.1 °F 24.9 °F 24.1 °F 70% 29.80 in 10.0 mi SSE 10.4 mph - N/A   Clear
5:52 AM 30.9 °F 23.5 °F 25.0 °F 79% 29.81 in 10.0 mi SSE 8.1 mph - N/A   Clear
6:52 AM 28.9 °F 19.8 °F 24.1 °F 82% 29.82 in 10.0 mi SSE 10.4 mph - N/A   Clear
7:52 AM 28.0 °F 20.8 °F 24.1 °F 85% 29.82 in 10.0 mi SSE 6.9 mph - N/A   Clear
8:52 AM 32.0 °F 25.6 °F 26.1 °F 79% 29.81 in 10.0 mi SSE 6.9 mph - N/A   Clear
9:52 AM 39.9 °F 32.5 °F 27.0 °F 60% 29.77 in 10.0 mi SSE 12.7 mph - N/A   Clear
10:52 AM 46.9 °F - 27.0 °F 46% 29.75 in 10.0 mi SSE 9.2 mph - N/A   Clear
11:52 AM 57.0 °F - 25.0 °F 29% 29.71 in 10.0 mi South 15.0 mph - N/A   Clear
12:52 PM 62.1 °F - 24.1 °F 23% 29.65 in 10.0 mi South 21.9 mph - N/A   Clear
1:52 PM 66.0 °F - 23.0 °F 20% 29.63 in 10.0 mi South 18.4 mph - N/A   Clear
2:52 PM 68.0 °F - 23.0 °F 18% 29.62 in 10.0 mi South 16.1 mph 21.9 mph N/A   Clear
3:52 PM 63.0 °F - 25.0 °F 24% 29.63 in 10.0 mi South 15.0 mph - N/A   Clear
4:52 PM 62.1 °F - 25.0 °F 24% 29.62 in 10.0 mi South 17.3 mph - N/A   Clear
5:52 PM 52.0 °F - 28.9 °F 41% 29.65 in 10.0 mi South 13.8 mph - N/A   Clear
6:52 PM 44.1 °F 39.0 °F 30.0 °F 58% 29.69 in 10.0 mi SE 9.2 mph - N/A   Clear
7:52 PM 41.0 °F 34.7 °F 30.0 °F 65% 29.68 in 10.0 mi SE 10.4 mph - N/A   Clear
8:52 PM 42.1 °F 35.2 °F 30.9 °F 65% 29.66 in 10.0 mi SE 12.7 mph - N/A   Clear
9:52 PM 42.1 °F 36.1 °F 30.9 °F 65% 29.64 in 10.0 mi SSE 10.4 mph - N/A   Clear
10:52 PM 42.1 °F 34.9 °F 30.9 °F 65% 29.60 in 10.0 mi SSE 13.8 mph - N/A   Clear
11:52 PM 37.9 °F 32.1 °F 30.0 °F 73% 29.56 in 10.0 mi SE 8.1 mph - N/A   Clear